When you browse on this site, cookies collect data to enhance your experience and personalize the content and advertising you see.
Visit our Privacy Policy to learn more. By continuing to use the site, you agree to this use of cookies and data.
  • In Hungary
  • List of Countries
  • For 7 days
  • Water Temperature
  • Satellite Maps
  • Weather Map
  • News
  • Weather Widgets
  • user-avatar
    Login

    Hourly Weather Karuzi

    Today, 14 December, Friday

    Time Temperature Precipitation Wind Pressure Humidity
    00:00 +15°C° 0.1 mm 0 mps 630 mmHg 92%
    01:00 +16°C° 0.1 mm 1 mps 630 mmHg 92%
    02:00 +15°C° 0 mm 0 mps 630 mmHg 93%
    03:00 +14°C° 0 mm 0 mps 630 mmHg 93%
    04:00 +14°C° 0 mm 0 mps 630 mmHg 94%
    05:00 +14°C° 0 mm 0 mps 630 mmHg 94%
    06:00 +16°C° 0 mm 0 mps 631 mmHg 88%
    07:00 +17°C° 0 mm 0 mps 632 mmHg 83%
    08:00 +19°C° 0 mm 0 mps 632 mmHg 78%
    09:00 +21°C° 0.2 mm 0 mps 633 mmHg 72%
    10:00 +23°C° 0.2 mm 0 mps 633 mmHg 66%
    11:00 +27°C° 0.2 mm 1 mps 633 mmHg 60%
    12:00 +27°C° 0.8 mm 1 mps 632 mmHg 62%
    13:00 +26°C° 0.8 mm 1 mps 631 mmHg 64%
    14:00 +26°C° 0.8 mm 1 mps 631 mmHg 66%
    15:00 +25°C° 1 mm 1 mps 630 mmHg 72%
    16:00 +24°C° 1 mm 1 mps 630 mmHg 77%
    17:00 +23°C° 1 mm 1 mps 629 mmHg 83%
    18:00 +21°C° 0.6 mm 1 mps 629 mmHg 86%
    19:00 +18°C° 0.6 mm 0 mps 629 mmHg 89%
    20:00 +16°C° 0.6 mm 0 mps 629 mmHg 92%
    21:00 +16°C° 0.1 mm 0 mps 630 mmHg 93%
    22:00 +16°C° 0.1 mm 0 mps 630 mmHg 93%
    23:00 +16°C° 0.1 mm 1 mps 630 mmHg 93%

    Tomorrow, 15 December, Saturday

    Time Temperature Precipitation Wind Pressure Humidity
    00:00 +16°C° 0 mm 1 mps 630 mmHg 94%
    01:00 +16°C° 0 mm 1 mps 629 mmHg 94%
    02:00 +15°C° 0 mm 1 mps 629 mmHg 94%
    03:00 +15°C° 0 mm 1 mps 629 mmHg 94%
    04:00 +15°C° 0 mm 1 mps 629 mmHg 94%
    05:00 +15°C° 0 mm 1 mps 629 mmHg 94%
    06:00 +18°C° 0 mm 1 mps 630 mmHg 89%
    07:00 +19°C° 0 mm 1 mps 631 mmHg 84%
    08:00 +21°C° 0 mm 1 mps 632 mmHg 79%
    09:00 +23°C° 0 mm 1 mps 632 mmHg 71%
    10:00 +25°C° 0 mm 1 mps 632 mmHg 62%
    11:00 +28°C° 0 mm 1 mps 633 mmHg 54%
    12:00 +27°C° 0.2 mm 1 mps 632 mmHg 55%
    13:00 +27°C° 0.2 mm 1 mps 631 mmHg 57%
    14:00 +27°C° 0.2 mm 2 mps 630 mmHg 58%
    15:00 +26°C° 0.7 mm 1 mps 630 mmHg 66%
    16:00 +24°C° 0.7 mm 1 mps 629 mmHg 75%
    17:00 +23°C° 0.7 mm 1 mps 629 mmHg 83%
    18:00 +22°C° 0.9 mm 1 mps 629 mmHg 86%
    19:00 +20°C° 0.9 mm 1 mps 629 mmHg 88%
    20:00 +17°C° 0.9 mm 0 mps 630 mmHg 91%
    21:00 +16°C° 0.4 mm 0 mps 630 mmHg 91%
    22:00 +18°C° 0.4 mm 1 mps 630 mmHg 90%
    23:00 +18°C° 0.4 mm 1 mps 630 mmHg 90%

    Day after tomorrow, 16 December, Sunday

    Time Temperature Precipitation Wind Pressure Humidity
    00:00 +18°C° 0 mm 1 mps 630 mmHg 91%
    01:00 +16°C° 0 mm 1 mps 629 mmHg 91%
    02:00 +16°C° 0 mm 1 mps 629 mmHg 92%
    03:00 +16°C° 0 mm 1 mps 629 mmHg 92%
    04:00 +15°C° 0 mm 1 mps 629 mmHg 92%
    05:00 +15°C° 0 mm 1 mps 629 mmHg 92%
    06:00 +18°C° 0 mm 1 mps 630 mmHg 89%
    07:00 +19°C° 0 mm 1 mps 631 mmHg 85%
    08:00 +21°C° 0 mm 1 mps 631 mmHg 81%
    09:00 +23°C° 0.1 mm 1 mps 632 mmHg 73%
    10:00 +24°C° 0.1 mm 1 mps 632 mmHg 65%
    11:00 +26°C° 0.1 mm 1 mps 632 mmHg 57%
    12:00 +26°C° 0.2 mm 1 mps 632 mmHg 57%
    13:00 +26°C° 0.2 mm 1 mps 631 mmHg 57%
    14:00 +26°C° 0.2 mm 1 mps 630 mmHg 57%
    15:00 +25°C° 0.7 mm 1 mps 630 mmHg 65%
    16:00 +24°C° 0.7 mm 1 mps 629 mmHg 74%
    17:00 +23°C° 0.7 mm 1 mps 629 mmHg 83%
    18:00 +21°C° 0.5 mm 1 mps 629 mmHg 85%
    19:00 +18°C° 0.5 mm 0 mps 629 mmHg 86%
    20:00 +17°C° 0.5 mm 0 mps 630 mmHg 88%
    21:00 +16°C° 0.2 mm 0 mps 630 mmHg 89%
    22:00 +18°C° 0.2 mm 1 mps 630 mmHg 90%
    23:00 +18°C° 0.2 mm 1 mps 630 mmHg 92%

    17 December, Monday

    Time Temperature Precipitation Wind Pressure Humidity
    00:00 +16°C° 0 mm 1 mps 629 mmHg 92%
    01:00 +16°C° 0 mm 1 mps 629 mmHg 93%
    02:00 +16°C° 0 mm 1 mps 629 mmHg 93%
    03:00 +15°C° 0 mm 1 mps 629 mmHg 93%
    04:00 +15°C° 0 mm 1 mps 629 mmHg 93%
    05:00 +15°C° 0 mm 1 mps 629 mmHg 93%
    06:00 +18°C° 0 mm 1 mps 630 mmHg 88%
    07:00 +19°C° 0 mm 1 mps 631 mmHg 84%
    08:00 +21°C° 0 mm 1 mps 631 mmHg 79%
    09:00 +23°C° 0.2 mm 1 mps 632 mmHg 72%
    10:00 +24°C° 0.2 mm 1 mps 632 mmHg 65%
    11:00 +26°C° 0.2 mm 1 mps 632 mmHg 58%
    12:00 +26°C° 0.5 mm 1 mps 631 mmHg 60%
    13:00 +26°C° 0.5 mm 2 mps 630 mmHg 62%
    14:00 +25°C° 0.5 mm 2 mps 629 mmHg 64%
    15:00 +24°C° 1.1 mm 1 mps 629 mmHg 72%
    16:00 +23°C° 1.1 mm 1 mps 629 mmHg 79%
    17:00 +22°C° 1.1 mm 1 mps 629 mmHg 86%
    18:00 +21°C° 0.4 mm 1 mps 629 mmHg 87%
    19:00 +18°C° 0.4 mm 0 mps 629 mmHg 88%
    20:00 +17°C° 0.4 mm 0 mps 630 mmHg 90%
    21:00 +16°C° 0.2 mm 0 mps 630 mmHg 90%
    22:00 +18°C° 0.2 mm 1 mps 630 mmHg 91%
    23:00 +18°C° 0.2 mm 1 mps 630 mmHg 92%

    18 December, Tuesday

    Time Temperature Precipitation Wind Pressure Humidity
    00:00 +18°C° 0.1 mm 1 mps 630 mmHg 93%
    01:00 +16°C° 0.1 mm 1 mps 629 mmHg 93%
    02:00 +16°C° 0.1 mm 1 mps 629 mmHg 94%
    03:00 +16°C° 0 mm 1 mps 629 mmHg 94%
    04:00 +16°C° 0 mm 1 mps 629 mmHg 94%
    05:00 +15°C° 0 mm 1 mps 629 mmHg 94%
    06:00 +18°C° 0 mm 1 mps 630 mmHg 90%
    07:00 +19°C° 0 mm 1 mps 631 mmHg 86%
    08:00 +21°C° 0 mm 1 mps 632 mmHg 82%
    09:00 +23°C° 0.1 mm 1 mps 632 mmHg 74%
    10:00 +25°C° 0.1 mm 1 mps 632 mmHg 66%
    11:00 +27°C° 0.1 mm 1 mps 632 mmHg 58%
    12:00 +26°C° 0.3 mm 1 mps 631 mmHg 59%
    13:00 +26°C° 0.3 mm 1 mps 630 mmHg 61%
    14:00 +25°C° 0.3 mm 2 mps 629 mmHg 62%
    15:00 +24°C° 0.7 mm 2 mps 629 mmHg 70%
    16:00 +23°C° 0.7 mm 2 mps 629 mmHg 77%
    17:00 +22°C° 0.7 mm 1 mps 628 mmHg 85%
    18:00 +21°C° 0.5 mm 1 mps 629 mmHg 87%
    19:00 +20°C° 0.5 mm 1 mps 629 mmHg 90%
    20:00 +17°C° 0.5 mm 0 mps 629 mmHg 92%
    21:00 +16°C° 0.1 mm 0 mps 629 mmHg 92%
    22:00 +16°C° 0.1 mm 0 mps 629 mmHg 93%
    23:00 +15°C° 0.1 mm 0 mps 629 mmHg 94%

    19 December, Wednesday

    Time Temperature Precipitation Wind Pressure Humidity
    00:00 +16°C° 0 mm 1 mps 629 mmHg 94%
    01:00 +16°C° 0 mm 1 mps 628 mmHg 94%
    02:00 +16°C° 0 mm 1 mps 628 mmHg 95%
    03:00 +15°C° 0 mm 1 mps 628 mmHg 95%
    04:00 +15°C° 0 mm 1 mps 628 mmHg 95%
    05:00 +14°C° 0 mm 0 mps 628 mmHg 95%
    06:00 +16°C° 0 mm 0 mps 629 mmHg 90%
    07:00 +17°C° 0 mm 0 mps 630 mmHg 86%
    08:00 +19°C° 0 mm 0 mps 631 mmHg 82%
    09:00 +23°C° 0.1 mm 1 mps 631 mmHg 73%
    10:00 +25°C° 0.1 mm 1 mps 632 mmHg 64%
    11:00 +27°C° 0.1 mm 1 mps 632 mmHg 56%
    12:00 +27°C° 0.1 mm 2 mps 631 mmHg 55%
    13:00 +27°C° 0.1 mm 2 mps 630 mmHg 53%
    14:00 +27°C° 0.1 mm 2 mps 629 mmHg 52%
    15:00 +26°C° 0.3 mm 2 mps 629 mmHg 60%
    16:00 +25°C° 0.3 mm 2 mps 628 mmHg 68%
    17:00 +24°C° 0.3 mm 2 mps 628 mmHg 76%
    18:00 +22°C° 0.8 mm 1 mps 628 mmHg 81%
    19:00 +20°C° 0.8 mm 1 mps 628 mmHg 87%
    20:00 +19°C° 0.8 mm 1 mps 628 mmHg 92%
    21:00 +18°C° 0.5 mm 1 mps 629 mmHg 92%
    22:00 +18°C° 0.5 mm 1 mps 629 mmHg 92%
    23:00 +18°C° 0.5 mm 1 mps 629 mmHg 93%
    Show more